Zurück zum Katalog

SL-8 DEB

AktivVLEO
NORAD 1392·DEBRIS·🇷🇺 Russia

Gestartet Mar 15, 1965 von Baikonur Cosmodrome

Loading…

Nächste Überflüge (nächste 24 Stunden)

TLE

AktuellSource: Space-Track

Epoche: Sep 14, 2026, 06:31 UTC

1 01392U 65020AH  26257.27197054  .00029497  00000-0  96876-3 0  9995
2 01392  55.8353 199.5349 0107472 253.5230 105.3971 15.25942128109709

Verfolge SL-8 DEB in Echtzeit mit AllMySat

Download on the App Store